Weather Roundup
Issued by NWS Chicago, IL

Home | Current Version | Previous Version | Text Only | Print | Product List | Glossary On
Versions: 1 2 3 4 5 6 7 8 9 10 11 12 13 14 15 16 17 18 19 20 21 22 23 24 25 26 27 28 29 30 31 32 33 34 35 36 37 38 39 40 41 42 43 44 45 46 47 48 49 50
000
NZUS59 KLOT 261112
HRRLOT

CHICAGO AREA WEATHER ROUNDUP
NATIONAL WEATHER SERVICE CHICAGO/ROMEOVILLE IL
500 AM CST SUN FEB 26 2017

NOTE: "FAIR" INDICATES FEW OR NO CLOUDS BELOW 12,000 FEET WITH NO
SIGNIFICANT WEATHER AND/OR OBSTRUCTIONS TO VISIBILITY.

* THESE STATIONS ARE NOT UNDER NWS QUALITY CONTROL. THEY ALSO MAY NOT
  REPORT WEATHER SUCH AS PRECIPITATION OR FOG.

ILZ005-006-012>014-019>023-261200-
NORTHEAST ILLINOIS

CITY           SKY/WX    TMP DP  RH WIND       PRES   REMARKS
OHARE          CLOUDY    25  18  74 S8        30.01S WCI  16
MIDWAY         CLOUDY    26  17  68 S9        30.03S WCI  17
AURORA         CLOUDY    24  20  84 S9        30.02S WCI  14
LANSING*       PTCLDY    22  20  93 S6        30.05F WCI  14
JOLIET*        PTCLDY    24  20  85 S3        30.05S
WAUKEGAN       CLOUDY    24  18  77 S9        29.98F WCI  14
DUPAGE AIRPORT CLOUDY    22  17  81 S9        30.01R WCI  12
WHEELING       CLOUDY    24  18  77 S9        30.02S WCI  14
KANKAKEE*      PTCLDY    22  17  82 CALM      30.07S
MORRIS*        PTCLDY    22  19  86 CALM      30.04R
LEWIS AIRPORT* PTCLDY    22  21  96 S8        30.04S WCI  12
NORTHERLY ISL    N/A     25  18  74 S5          N/A  WCI  19
$$

WIZ051-052-058>065-066-070>072-261200-
SOUTHEAST WISCONSIN

CITY           SKY/WX    TMP DP  RH WIND       PRES   REMARKS
MILWAUKEE      CLOUDY    24  16  71 S8        29.96F WCI  15
KENOSHA*       CLOUDY    24  18  77 S8        29.97F WCI  15
RACINE*        CLOUDY    24  16  71 S6        29.99F WCI  17
WAUKESHA       MOCLDY    21  16  79 S7        29.95F WCI  13
WEST BEND      CLOUDY    21  18  86 S3        29.92F
$$

INZ001>003-010>013-019-020-261200-
NORTHWEST INDIANA

CITY           SKY/WX    TMP DP  RH WIND       PRES   REMARKS
GARY*          PTCLDY    25  18  74 SE5       30.06F WCI  19
MICHIGAN CITY* NOT AVBL
RENSSELAER*    NOT AVBL
VALPARAISO     PTCLDY    21  17  84 S7        30.07S WCI  12
$$

LMZ740>746-261200-
SOUTHERN LAKE MICHIGAN

STATION/POSITION TIME  SKY/WX   TEMP WIND        PRES    VSBY
                                AIR  DIR/SP/G
                 (UTC)          (F)  (DEG/KT/KT) (MB)    (MI)
HARRISON CRIB    1040            28  190/ 14/ 15   N/A
BURNHAM HARBOR   1100            25  180/  7       N/A
CALUMET HARBOR   1048            24  170/  7/ 10 1016.8F
BURNS HARBOR     1040            24  180/ 10/ 12 1018.6S
MICHIGAN CITY    1040            23  150/  9/ 11   N/A
$$

ABBREVIATIONS USED IN REMARKS
   TC - TEMPERATURE IN CELSIUS
  WCI - WIND CHILL INDEX
   HX - HEAT INDEX
  VSB - VISIBILITY
$$



USA.gov is the U.S. government's official web portal to all federal, state and local government web resources and services.